Вернуться в каталог

STARLINK-36722

АктивенСвязьVLEO
NORAD 67917·PAYLOAD·🇺🇸 United States

Запущен Feb 22, 2026 с Vandenberg Space Force Base

Loading…

Ближайшие Пролёты (ближайшие 24 часа)

TLE

СвежийSource: CelesTrak SupGP

Эпоха: Sep 14, 2026, 21:25 UTC

1 67917C 26036P   26257.89284722  .00035874  00000+0  13001-2 0  2571
2 67917  43.0004 256.4196 0001166 251.0071  43.4766 15.27542888    17

Отслеживайте STARLINK-36722 в реальном времени с AllMySat

Download on the App Store